Location: Sternwarte ZA, Rosenfeld-Brittheim
(48.2889°N, 8.6789°E)
Time: 14:36:44
(UTC+01:00)

ISS - Visible Passes

Search period start: 16 December 2018 00:00
Search period end: 26 December 2018 00:00
Orbit: 401 x 408 km, 51.6° (Epoch: 17 December)

Date Brightness Start Highest point End Pass type
(mag) Time Alt. Az. Time Alt. Az. Time Alt. Az.
16 Dec -0.4 17:06:46 10° WSW 17:08:35 14° SW 17:10:25 10° S visible
22 Dec -0.2 07:05:27 10° SSE 07:06:23 11° SE 07:07:19 10° ESE visible
24 Dec -1.1 06:55:23 10° SSW 06:57:59 22° SE 07:00:36 10° E visible
25 Dec -0.7 06:04:16 10° SSE 06:05:56 13° SE 06:07:36 10° ESE visible
